Other Public Products
Issued by NWS Grand Forks, ND

Home | Current Version | Previous Version | Text Only | Print | Product List | Glossary Off
Versions: 1 2 3 4 5 6 7 8 9 10 11 12 13 14 15 16 17 18 19 20 21 22 23 24 25 26 27 28 29 30 31 32 33 34 35 36 37 38 39 40 41 42 43 44 45 46 47 48 49 50

000
FPUS83 KFGF 301431
OPUFGF
PRAIRIE TO PINES WEATHER ROUNDUP
NATIONAL WEATHER SERVICE EASTERN NORTH DAKOTA/GRAND FORKS ND
900 AM CDT THU OCT 30 2014

 **SATELLITE DATA USED TO AUGMENT SKY COVER AT AUTOMATED STATIONS**
 *****  WEATHER ACROSS EASTERN NORTH DAKOTA  *****

CITY           SKY/WX    TMP DP  RH WIND       PRES   REMARKS
GRAND FORKS    CLOUDY    33  30  88 N13       30.20R WCI  24
GRAND FORKS AF CLOUDY    36  32  87 N13       30.22R
GRAND CITY NWS   N/A     32 N/A N/A N10         N/A  WCI  24
BUXTON           N/A     32  32 100 NW10        N/A  WCI  24
DEVILS LAKE    CLOUDY    34  23  64 N16       30.24R WCI  23
FARGO          CLOUDY    40  37  89 N13       30.14R
WAHPETON ARPT  CLOUDY    37  36  93 N8        30.12R
$$

 *****  WEATHER ACROSS CENTRAL AND WESTERN NORTH DAKOTA  *****

CITY           SKY/WX    TMP DP  RH WIND       PRES   REMARKS
JAMESTOWN      CLEAR     32  30  92 N10       30.19R WCI  24
BISMARCK       CLEAR     32  29  88 NW7       30.27R
MINOT          CLOUDY    32  29  88 N13       30.30R WCI  22
MINOT AFB      CLOUDY    33  32  99 N10       30.30R WCI  24
GARRISON         N/A     33  30  88 N7        30.29R
WILLISTON      CLOUDY    36  31  82 N9        30.32R
DICKINSON      CLOUDY    35  32  88 N9        30.27R FOG
HETTINGER      CLOUDY    34  32  92 N10       30.27R FOG
$$

 *****  OTHER OBSERVATIONS NORTHEAST NORTH DAKOTA  *****

CITY           SKY/WX    TMP DP  RH WIND       PRES   REMARKS
WALHALLA         N/A     34  30  86 N22G31    30.27R WCI  22
LANGDON        CLOUDY    32  28  86 N18G25    30.24R WCI  20
CAVALIER       CLOUDY    36  30  80 N20       30.25R
GRAFTON        CLOUDY    36  32  87 N14       30.23R
CANDO          CLOUDY    32  28  86 N15       30.29R WCI  22
FORT TOTTEN      N/A     33  30  90 N7        29.95S
ROLLA          CLOUDY    28  27  93 N24G30    30.30R WCI  14
RUGBY          PTSUNNY   32  32 100 N9        30.30R WCI  24
 ***** THE ABOVE OBSERVATIONS ARE NON NWS ARE NOT QUALITY
        CONTROLLED AND MAY MIS-REPORT RAIN FOR SNOW...
$$

 *****  OTHER OBSERVATIONS SOUTHEAST NORTH DAKOTA *****

CITY           SKY/WX    TMP DP  RH WIND       PRES   REMARKS
COOPERSTOWN    NOT AVBL
VALLEY CITY    PTSUNNY   34  34 100 N15G21    30.18R WCI  24
OAKES            N/A     37  37 100 N20G29    30.14R FOG
GWINNER        CLOUDY    39  39 100 N18G28    30.15R
SHEYENNE NWR     N/A     39  37  94 N13       29.95
BUFFALO        NOT AVBL
WYNDMERE         N/A     39  39 100 N10         N/A
 ***** THE ABOVE OBSERVATIONS ARE NON NWS ARE NOT QUALITY
       CONTROLLED AND MAY MIS-REPORT RAIN FOR SNOW...
$$

  *****  WEATHER ACROSS NORTHERN MINNESOTA  *****

CITY           SKY/WX    TMP DP  RH WIND       PRES   REMARKS
FLAG ISLAND    LGT RAIN  36  34  93 NW17      30.13R
WARROAD        CLOUDY    36  30  80 NW8       30.16R
ROSEAU         CLOUDY    36  30  80 NW7       30.17R
HALLOCK        CLOUDY    36  34  93 N13       30.22R
THF RVR FALLS  CLOUDY    36  30  80 N10       30.18R
HALSTAD          N/A     37  34  87 N16         N/A
FOSSTON        MOCLDY    34  32  93 N9        30.15R
BAUDETTE       CLOUDY    37  33  85 NW10      30.11R
WASKISH        CLOUDY    36  34  93 NW6       30.12R
CROOKSTON      MOCLDY    34  30  86 N12       30.20R
$$
  *****  WEATHER ACROSS CENTRAL AND WEST MINNESOTA  *****

CITY           SKY/WX    TMP DP  RH WIND       PRES   REMARKS
BEMIDJI        CLOUDY    35  33  93 NW5       30.12R
PARK RAPIDS    CLOUDY    36  35  96 N7        30.10R
WADENA         CLOUDY    36  34  93 N6        30.09R
DETROIT LAKES  RAIN      37  37 100 N3        30.12R
MOORHEAD       CLOUDY    39  39 100 N13       30.15R FOG
FERGUS FALLS   CLOUDY    39  37  93 N7        30.12R FOG
ELBOW LAKE     LGT RAIN  39  38  94 N3        30.09R
MORRIS MN      CLOUDY    39  37  93 N3        30.07R
STAPLES        CLOUDY    36  34  93 N3        30.09R
WHEATON        CLOUDY    37  36  93 N5        30.11R
$$
  *****  WEATHER ELSEWHERE ACROSS MINNESOTA  *****

CITY           SKY/WX    TMP DP  RH WIND       PRES   REMARKS
DULUTH         CLOUDY    36  31  82 NW6       30.05R
INTRNTL FALLS  CLOUDY    35  33  92 NW7       30.08R
ELY            CLOUDY    36  34  93 NW7       30.05R
CLOQUET        CLOUDY    36  34  93 NW3       30.06S
BRAINERD       CLOUDY    37  35  92 N3        30.09R
HIBBING        CLOUDY    36  31  82 N6        30.07R
ALEXANDRIA     CLOUDY    39  35  86 CALM      30.08R
SAINT CLOUD    CLOUDY    40  35  83 CALM      30.07R
MINNEAPOLIS    CLOUDY    40  34  79 CALM      30.06R
$$

  *****  WEATHER ACROSS SOUTH DAKOTA  *****

CITY           SKY/WX    TMP DP  RH WIND       PRES   REMARKS
SIOUX FALLS    PTCLDY    44  34  67 N12       30.04R
BROOKINGS      NOT AVBL
WATERTOWN      MOCLDY    40  37  89 N6        30.07R
HURON          CLEAR     39  36  89 NW16      30.11R
SISSETON         N/A     42  40  92 N12       30.07R
ABERDEEN       CLOUDY    39  36  89 N17       30.13R
MITCHELL       CLEAR     42  38  85 NW15      30.10R
PIERRE         CLEAR     41  36  82 NW16      30.18R
MOBRIDGE       MOCLDY    39  34  82 N21G30    30.19R
RAPID CITY     CLEAR     36  29  75 CALM      30.25R
$$

  *****  SOME WEATHER IN NEARBY STATES *****

CITY           SKY/WX    TMP DP  RH WIND       PRES   REMARKS
GLASGOW MT     CLOUDY    35  31  85 E6        30.32R
GREAT FALLS MT CLEAR     33  28  81 CALM      30.24R
CHEYENNE WY    CLEAR     34  23  64 W6        30.35R
SCOTTSBLUFF NE CLEAR     35  27  72 NW6       30.32R
OMAHA NE       MOSUNNY   43  36  76 N3        30.05R
DES MOINES IA  MOSUNNY   45  36  70 SE12      30.03R
DAVENPORT IA   PTSUNNY   41  34  76 SE5       30.11R
CHICAGO IL     PTSUNNY   39  33  79 SW3       30.14R
EAU CLAIRE WI  CLOUDY    38  33  82 CALM      30.07R
LA CROSSE WI   CLOUDY    41  36  82 SE8       30.09R
$$

  *****  SOME NATIONAL WEATHER *****

CITY           SKY/WX    TMP DP  RH WIND       PRES   REMARKS
LA GUARDIA NY  MOSUNNY   53  40  61 NW15      30.00R
RALEIGH NC     SUNNY     57  49  74 VRB3      30.07R
ATLANTA GA     MOSUNNY   54  42  64 N7        30.09R
NEW ORLEANS LA MOSUNNY   65  46  50 NE23      30.12R
OKLAHOMA CITY  MOSUNNY   52  44  74 S3        30.13R
ALBUQUERQUE NM PTCLDY    47  13  25 N8        30.32R
SALT LAKE CITY PTCLDY    39  29  67 SE7       30.27S
LOS ANGELES CA MOCLDY    64  61  90 CALM      29.97F
BOISE ID       PTCLDY    51  37  58 S14       30.14S
SEATTLE WA     CLOUDY    57  49  74 S5        29.88F
$$

*** WEATHER ACROSS MANITOBA...SASKATCHEWAN AND ONTARIO ***
                ***ONTARIO***

CITY           SKY/WX    TMP DP  RH WIND       PRES   REMARKS
GERALDTON      LGT SNOW  28  28 100 CALM      30.02S
THUNDER BAY    PTSUNNY   37  37 100 W3        30.04R
SIOUX LOOKOUT  FLURRIES  32  28  86 N10G17    30.05R WCI  24
TORONTO        PTSUNNY   43  36  75 NW3       30.08R
BIG TROUT LK   LGT SNOW  23  21  93 N6        30.08R WCI  16
PICKLE LAKE    LGT SNOW  28  25  86 NW5       30.02R WCI  23
DRYDEN         CLOUDY    32  30  93 NW5       30.07R
KENORA         MOCLDY    32  30  93 N5        30.11R
$$
                *** MANITOBA***

CITY           SKY/WX    TMP DP  RH WIND       PRES   REMARKS
BRANDON        MOCLDY    30  23  74 N13       30.35R WCI  20
DAUPHIN        CLOUDY    30  23  74 NW9       30.39R WCI  22
ISLAND LAKE    LGT SNOW  27  23  86 N15G23    30.20R DRFTSNOWWCI  15
PILOT MOUND      N/A     30  25  80 N20G30      N/A  WCI  18
THE PAS        PTCLDY    28  19  69 N15G25    30.41R WCI  17
THOMPSON       FLURRIES  21  14  73 N14       30.37R WCI   8
WINNIPEG       CLOUDY    34  28  80 NW18G24   30.26R WCI  23
LYNN LAKE      CLOUDY    18  14  86 NW7       30.41R WCI   8
CHURCHILL      CLOUDY    19  18  93 NW17G25   30.32R WCI   4
GILLAM         PTCLDY    18  14  86 N18       30.30R WCI   2
$$
                ***SASKATCHEWAN***

CITY           SKY/WX    TMP DP  RH WIND       PRES   REMARKS
ESTEVAN        CLOUDY    34  30  86 N8        30.33R
KINDERSLEY     CLOUDY    30  28  93 SE13      30.34R FOG     WCI  20
LLOYDMINSTER   CLOUDY    32  30  93 SE14G22   30.32R WCI  22
PRINCE ALBERT  CLOUDY    27  21  80 E8        30.47R WCI  18
REGINA         LGT SNOW  32  30  93 NE9       30.39R FOG     WCI  24



USA.gov is the U.S. government's official web portal to all federal, state and local government web resources and services.